| time (UTC) | temp F | wind direction | speed MPH | gust MPH | rain 1hr in | rain 24hr in | rain mn in | humidity % | barometer mb |
| 20260507140054 | 57 | 0 | 0.0 | 3.0 | 0.00 | 0.09 | 0.03 | 69 | 1012.3 |
| 20260507135541 | 57 | 331 | 1.0 | 4.0 | 0.00 | 0.10 | 0.03 | 69 | 1012.4 |
| 20260507135038 | 57 | 349 | 1.0 | 4.0 | 0.00 | 0.10 | 0.03 | 68 | 1012.3 |
| 20260507134555 | 57 | 0 | 0.0 | 3.0 | 0.00 | 0.10 | 0.03 | 70 | 1012.4 |
| 20260507134038 | 57 | 0 | 1.0 | 3.0 | 0.00 | 0.10 | 0.03 | 70 | 1012.3 |
| 20260507133538 | 57 | 9 | 1.0 | 4.0 | 0.00 | 0.10 | 0.03 | 70 | 1012.2 |
| 20260507133057 | 57 | 352 | 1.0 | 6.0 | 0.00 | 0.10 | 0.03 | 70 | 1012.0 |
| 20260507132537 | 57 | 349 | 2.0 | 6.0 | 0.00 | 0.10 | 0.03 | 69 | 1012.1 |
| 20260507132041 | 57 | 327 | 2.0 | 6.0 | 0.00 | 0.10 | 0.03 | 69 | 1012.0 |
| 20260507131601 | 57 | 0 | 1.0 | 4.0 | 0.00 | 0.10 | 0.03 | 71 | 1012.1 |
| 20260507131039 | 57 | 0 | 0.0 | 3.0 | 0.00 | 0.10 | 0.03 | 73 | 1012.1 |
| 20260507130538 | 57 | 0 | 0.0 | 3.0 | 0.00 | 0.10 | 0.03 | 73 | 1012.0 |
| 20260507130107 | 57 | 321 | 1.0 | 3.0 | 0.00 | 0.10 | 0.03 | 74 | 1012.0 |
| 20260507125539 | 57 | 355 | 0.0 | 3.0 | 0.00 | 0.10 | 0.03 | 75 | 1012.2 |
| 20260507125038 | 57 | 0 | 1.0 | 3.0 | 0.00 | 0.10 | 0.03 | 74 | 1012.3 |
| 20260507124554 | 57 | 9 | 0.0 | 3.0 | 0.00 | 0.10 | 0.03 | 75 | 1012.2 |
| 20260507124038 | 57 | 0 | 0.0 | 4.0 | 0.00 | 0.10 | 0.03 | 76 | 1012.0 |
| 20260507123537 | 57 | 0 | 0.0 | 4.0 | 0.00 | 0.10 | 0.03 | 77 | 1012.0 |
| 20260507123049 | 57 | 330 | 1.0 | 4.0 | 0.00 | 0.10 | 0.03 | 78 | 1011.9 |
| 20260507122537 | 57 | 337 | 1.0 | 3.0 | 0.00 | 0.10 | 0.03 | 79 | 1012.0 |
| 20260507122037 | 56 | 352 | 0.0 | 3.0 | 0.00 | 0.10 | 0.03 | 80 | 1012.0 |
| 20260507121603 | 56 | 321 | 1.0 | 3.0 | 0.00 | 0.10 | 0.03 | 80 | 1011.8 |
| 20260507121038 | 56 | 0 | 0.0 | 3.0 | 0.00 | 0.10 | 0.03 | 82 | 1011.7 |
| 20260507120537 | 56 | 0 | 1.0 | 3.0 | 0.00 | 0.10 | 0.03 | 81 | 1011.7 |
| 20260507120054 | 56 | 311 | 0.0 | 0.0 | 0.00 | 0.10 | 0.03 | 83 | 1011.5 |
| 20260507115538 | 56 | 0 | 0.0 | 0.0 | 0.00 | 0.10 | 0.03 | 84 | 1011.5 |
| 20260507115037 | 56 | 0 | 0.0 | 0.0 | 0.00 | 0.10 | 0.03 | 83 | 1011.6 |
| 20260507114613 | 56 | 0 | 0.0 | 0.0 | 0.00 | 0.10 | 0.03 | 84 | 1011.9 |
| 20260507114039 | 55 | 0 | 0.0 | 0.0 | 0.00 | 0.10 | 0.03 | 84 | 1011.9 |
| 20260507113538 | 55 | 0 | 0.0 | 0.0 | 0.00 | 0.10 | 0.03 | 83 | 1011.7 |
| 20260507113048 | 55 | 0 | 0.0 | 0.0 | 0.00 | 0.10 | 0.03 | 84 | 1011.7 |
| 20260507112537 | 55 | 0 | 0.0 | 1.0 | 0.00 | 0.10 | 0.03 | 85 | 1011.6 |
| 20260507112038 | 55 | 0 | 0.0 | 1.0 | 0.00 | 0.10 | 0.03 | 84 | 1011.4 |
| 20260507111551 | 55 | 0 | 0.0 | 1.0 | 0.00 | 0.10 | 0.03 | 84 | 1011.5 |
| 20260507111038 | 55 | 0 | 0.0 | 0.0 | 0.00 | 0.10 | 0.03 | 84 | 1011.6 |
| 20260507110539 | 55 | 0 | 0.0 | 1.0 | 0.00 | 0.10 | 0.03 | 84 | 1011.6 |
| 20260507110052 | 55 | 0 | 0.0 | 1.0 | 0.00 | 0.10 | 0.03 | 85 | 1011.8 |
| 20260507105538 | 55 | 0 | 0.0 | 2.0 | 0.00 | 0.10 | 0.03 | 84 | 1011.6 |
| 20260507105041 | 55 | 0 | 0.0 | 2.0 | 0.00 | 0.10 | 0.03 | 84 | 1011.5 |
| 20260507104552 | 55 | 0 | 0.0 | 0.0 | 0.00 | 0.10 | 0.03 | 84 | 1011.5 |
| 20260507104038 | 55 | 0 | 0.0 | 0.0 | 0.00 | 0.10 | 0.03 | 84 | 1011.4 |
| 20260507103539 | 55 | 0 | 0.0 | 0.0 | 0.00 | 0.10 | 0.03 | 85 | 1011.5 |
| 20260507103049 | 55 | 0 | 0.0 | 0.0 | 0.00 | 0.10 | 0.03 | 84 | 1011.3 |
| 20260507102537 | 55 | 0 | 0.0 | 0.0 | 0.00 | 0.10 | 0.03 | 84 | 1011.4 |
| 20260507102038 | 55 | 0 | 0.0 | 0.0 | 0.00 | 0.10 | 0.03 | 84 | 1011.1 |
| 20260507101547 | 55 | 0 | 0.0 | 0.0 | 0.00 | 0.10 | 0.03 | 84 | 1011.1 |
| 20260507101036 | 55 | 0 | 0.0 | 0.0 | 0.00 | 0.10 | 0.03 | 85 | 1011.1 |
| 20260507100539 | 55 | 0 | 0.0 | 0.0 | 0.00 | 0.10 | 0.03 | 85 | 1011.0 |
| 20260507100053 | 55 | 0 | 0.0 | 0.0 | 0.00 | 0.10 | 0.03 | 87 | 1011.1 |
| 20260507095541 | 55 | 0 | 0.0 | 0.0 | 0.00 | 0.10 | 0.03 | 85 | 1011.3 |
| 20260507095038 | 55 | 0 | 0.0 | 0.0 | 0.00 | 0.10 | 0.03 | 85 | 1011.3 |
| 20260507094553 | 55 | 0 | 0.0 | 0.0 | 0.00 | 0.10 | 0.03 | 85 | 1011.3 |
| 20260507094038 | 55 | 0 | 0.0 | 0.0 | 0.00 | 0.10 | 0.03 | 85 | 1011.1 |
| 20260507093538 | 55 | 0 | 0.0 | 0.0 | 0.00 | 0.10 | 0.03 | 87 | 1011.1 |
| 20260507093055 | 55 | 0 | 0.0 | 0.0 | 0.00 | 0.10 | 0.03 | 86 | 1011.1 |
| 20260507092538 | 55 | 0 | 0.0 | 0.0 | 0.00 | 0.10 | 0.03 | 87 | 1011.0 |
| 20260507092038 | 55 | 0 | 0.0 | 0.0 | 0.00 | 0.10 | 0.03 | 87 | 1011.0 |
| 20260507091557 | 55 | 0 | 0.0 | 0.0 | 0.00 | 0.10 | 0.03 | 86 | 1011.2 |
| 20260507091038 | 55 | 0 | 0.0 | 1.0 | 0.00 | 0.10 | 0.03 | 87 | 1011.2 |
| 20260507090538 | 55 | 0 | 0.0 | 1.0 | 0.00 | 0.10 | 0.03 | 86 | 1010.8 |
| 20260507090052 | 55 | 0 | 0.0 | 0.0 | 0.00 | 0.10 | 0.03 | 87 | 1010.8 |
| 20260507085538 | 55 | 0 | 0.0 | 0.0 | 0.00 | 0.10 | 0.03 | 88 | 1010.7 |
| 20260507085038 | 56 | 0 | 0.0 | 0.0 | 0.00 | 0.10 | 0.03 | 89 | 1010.5 |
| 20260507084548 | 56 | 0 | 0.0 | 0.0 | 0.00 | 0.10 | 0.03 | 89 | 1010.5 |
| 20260507084037 | 56 | 0 | 0.0 | 0.0 | 0.00 | 0.10 | 0.03 | 89 | 1010.8 |
| 20260507083538 | 56 | 0 | 0.0 | 0.0 | 0.00 | 0.10 | 0.03 | 90 | 1010.8 |
| 20260507083048 | 56 | 0 | 0.0 | 0.0 | 0.00 | 0.10 | 0.03 | 90 | 1010.8 |
| 20260507082538 | 56 | 0 | 0.0 | 0.0 | 0.00 | 0.10 | 0.03 | 90 | 1010.9 |
| 20260507082038 | 56 | 0 | 0.0 | 0.0 | 0.00 | 0.10 | 0.03 | 90 | 1011.1 |
| 20260507081550 | 56 | 0 | 0.0 | 0.0 | 0.00 | 0.10 | 0.03 | 90 | 1011.0 |
| 20260507081038 | 56 | 0 | 0.0 | 1.0 | 0.00 | 0.10 | 0.03 | 89 | 1011.0 |
| 20260507080539 | 56 | 0 | 0.0 | 2.0 | 0.00 | 0.10 | 0.03 | 89 | 1011.1 |
| 20260507080048 | 56 | 0 | 0.0 | 3.0 | 0.00 | 0.10 | 0.03 | 89 | 1010.6 |
| 20260507075538 | 56 | 0 | 0.0 | 3.0 | 0.00 | 0.10 | 0.03 | 89 | 1010.3 |
| 20260507075038 | 56 | 355 | 0.0 | 2.0 | 0.00 | 0.10 | 0.03 | 90 | 1010.2 |
| 20260507074558 | 56 | 0 | 0.0 | 0.0 | 0.00 | 0.10 | 0.03 | 90 | 1010.3 |
| 20260507074038 | 57 | 0 | 0.0 | 0.0 | 0.00 | 0.10 | 0.03 | 90 | 1010.3 |
| 20260507073542 | 57 | 0 | 0.0 | 0.0 | 0.00 | 0.10 | 0.03 | 90 | 1010.2 |
| 20260507073042 | 57 | 0 | 0.0 | 0.0 | 0.00 | 0.10 | 0.03 | 90 | 1010.1 |
| 20260507072538 | 57 | 0 | 0.0 | 0.0 | 0.00 | 0.10 | 0.03 | 90 | 1009.9 |
| 20260507072037 | 57 | 0 | 0.0 | 2.0 | 0.00 | 0.10 | 0.03 | 89 | 1009.9 |
| 20260507071552 | 57 | 0 | 0.0 | 2.0 | 0.00 | 0.10 | 0.03 | 90 | 1010.0 |
| 20260507071038 | 57 | 0 | 0.0 | 2.0 | 0.00 | 0.10 | 0.03 | 90 | 1010.0 |
| 20260507070538 | 57 | 0 | 0.0 | 0.0 | 0.01 | 0.10 | 0.03 | 89 | 1010.0 |
| 20260507070051 | 57 | 0 | 0.0 | 0.0 | 0.01 | 0.10 | 0.03 | 89 | 1010.2 |
| 20260507065538 | 57 | 0 | 0.0 | 1.0 | 0.01 | 0.10 | 0.03 | 89 | 1010.2 |
| 20260507065038 | 57 | 0 | 0.0 | 3.0 | 0.01 | 0.10 | 0.03 | 89 | 1010.1 |
| 20260507064548 | 57 | 0 | 0.0 | 4.0 | 0.01 | 0.10 | 0.03 | 89 | 1009.9 |
| 20260507064041 | 57 | 349 | 1.0 | 5.0 | 0.01 | 0.10 | 0.03 | 89 | 1010.0 |
| 20260507063536 | 57 | 9 | 1.0 | 5.0 | 0.01 | 0.10 | 0.03 | 90 | 1010.0 |
| 20260507063048 | 58 | 346 | 1.0 | 3.0 | 0.01 | 0.10 | 0.03 | 91 | 1010.2 |
| 20260507062538 | 58 | 0 | 1.0 | 4.0 | 0.01 | 0.10 | 0.03 | 91 | 1010.3 |
| 20260507062042 | 58 | 0 | 1.0 | 4.0 | 0.02 | 0.10 | 0.03 | 91 | 1010.4 |
| 20260507061552 | 58 | 0 | 0.0 | 3.0 | 0.02 | 0.10 | 0.03 | 90 | 1009.9 |
| 20260507061038 | 58 | 0 | 0.0 | 3.0 | 0.02 | 0.10 | 0.03 | 90 | 1009.6 |
| 20260507060538 | 58 | 0 | 0.0 | 4.0 | 0.01 | 0.09 | 0.02 | 90 | 1009.6 |
| 20260507060049 | 59 | 303 | 0.0 | 4.0 | 0.01 | 0.09 | 0.02 | 90 | 1009.0 |
| 20260507055538 | 59 | 0 | 0.0 | 5.0 | 0.01 | 0.09 | 0.02 | 90 | 1008.7 |
| 20260507055042 | 59 | 22 | 1.0 | 6.0 | 0.01 | 0.09 | 0.02 | 90 | 1008.6 |
| 20260507054621 | 59 | 66 | 1.0 | 6.0 | 0.01 | 0.09 | 0.02 | 90 | 1008.4 |
| 20260507054039 | 60 | 0 | 0.0 | 4.0 | 0.02 | 0.09 | 0.02 | 90 | 1008.7 |
| 20260507053538 | 60 | 0 | 0.0 | 2.0 | 0.02 | 0.09 | 0.02 | 89 | 1008.7 |
| 20260507053054 | 60 | 0 | 0.0 | 2.0 | 0.02 | 0.09 | 0.02 | 89 | 1009.0 |
| 20260507052536 | 61 | 0 | 0.0 | 0.0 | 0.02 | 0.09 | 0.02 | 89 | 1009.4 |
| 20260507052038 | 61 | 0 | 0.0 | 3.0 | 0.01 | 0.08 | 0.01 | 88 | 1009.7 |
| 20260507051549 | 61 | 0 | 0.0 | 4.0 | 0.01 | 0.08 | 0.01 | 88 | 1009.9 |
| 20260507051038 | 62 | 322 | 2.0 | 4.0 | 0.01 | 0.08 | 0.01 | 88 | 1009.9 |
| 20260507050537 | 62 | 352 | 0.0 | 2.0 | 0.01 | 0.08 | 0.01 | 89 | 1010.0 |
| 20260507050054 | 63 | 0 | 0.0 | 2.0 | 0.01 | 0.08 | 0.01 | 89 | 1009.9 |
| 20260507045538 | 63 | 0 | 0.0 | 3.0 | 0.01 | 0.08 | 0.01 | 88 | 1009.7 |
| 20260507045038 | 63 | 335 | 0.0 | 3.0 | 0.01 | 0.08 | 0.01 | 89 | 1009.7 |
| 20260507044553 | 64 | 5 | 0.0 | 3.0 | 0.01 | 0.08 | 0.01 | 88 | 1009.2 |
| 20260507044040 | 64 | 276 | 1.0 | 3.0 | 0.00 | 0.07 | 0.00 | 88 | 1009.3 |
| 20260507043538 | 64 | 0 | 1.0 | 3.0 | 0.00 | 0.07 | 0.00 | 89 | 1009.3 |
| 20260507043048 | 65 | 0 | 0.0 | 0.0 | 0.00 | 0.07 | 0.00 | 90 | 1009.5 |
| 20260507042539 | 65 | 0 | 0.0 | 0.0 | 0.00 | 0.07 | 0.00 | 90 | 1009.3 |
| 20260507042038 | 65 | 0 | 0.0 | 0.0 | 0.00 | 0.07 | 0.00 | 90 | 1009.1 |
| 20260507041559 | 65 | 0 | 0.0 | 0.0 | 0.00 | 0.07 | 0.00 | 90 | 1008.9 |
| 20260507041038 | 65 | 0 | 0.0 | 0.0 | 0.00 | 0.07 | 0.00 | 90 | 1008.9 |
| 20260507040538 | 65 | 0 | 0.0 | 0.0 | 0.00 | 0.07 | 0.00 | 90 | 1009.0 |
| 20260507040049 | 65 | 0 | 0.0 | 0.0 | 0.00 | 0.07 | 0.00 | 90 | 1009.1 |
| 20260507035535 | 65 | 0 | 0.0 | 0.0 | 0.00 | 0.07 | 0.07 | 89 | 1009.0 |
| 20260507035039 | 65 | 0 | 0.0 | 0.0 | 0.00 | 0.07 | 0.07 | 90 | 1008.9 |
| 20260507034558 | 65 | 0 | 0.0 | 0.0 | 0.00 | 0.07 | 0.07 | 90 | 1008.9 |
| 20260507034038 | 65 | 0 | 0.0 | 0.0 | 0.00 | 0.07 | 0.07 | 89 | 1008.8 |
| 20260507033538 | 65 | 0 | 0.0 | 0.0 | 0.00 | 0.07 | 0.07 | 89 | 1008.8 |
| 20260507033054 | 65 | 0 | 0.0 | 0.0 | 0.00 | 0.07 | 0.07 | 89 | 1008.6 |
| 20260507032538 | 65 | 0 | 0.0 | 0.0 | 0.00 | 0.07 | 0.07 | 89 | 1008.6 |
| 20260507032038 | 65 | 0 | 0.0 | 0.0 | 0.00 | 0.07 | 0.07 | 89 | 1008.6 |
| 20260507031603 | 65 | 0 | 0.0 | 0.0 | 0.00 | 0.07 | 0.07 | 89 | 1008.7 |
| 20260507031038 | 65 | 0 | 0.0 | 0.0 | 0.00 | 0.07 | 0.07 | 89 | 1009.0 |
| 20260507030537 | 65 | 0 | 0.0 | 0.0 | 0.00 | 0.07 | 0.07 | 89 | 1009.1 |
| 20260507030056 | 65 | 0 | 0.0 | 0.0 | 0.00 | 0.07 | 0.07 | 88 | 1009.0 |
| 20260507025538 | 65 | 0 | 0.0 | 0.0 | 0.00 | 0.07 | 0.07 | 88 | 1008.7 |
| 20260507025039 | 65 | 0 | 0.0 | 0.0 | 0.00 | 0.07 | 0.07 | 88 | 1008.7 |
| 20260507024555 | 65 | 0 | 0.0 | 0.0 | 0.00 | 0.07 | 0.07 | 88 | 1008.8 |
| 20260507024037 | 65 | 0 | 0.0 | 0.0 | 0.00 | 0.07 | 0.07 | 88 | 1008.7 |
| 20260507023538 | 66 | 0 | 0.0 | 0.0 | 0.00 | 0.07 | 0.07 | 88 | 1008.6 |
| 20260507023104 | 66 | 0 | 0.0 | 0.0 | 0.00 | 0.07 | 0.07 | 88 | 1008.2 |
| 20260507022643 | 66 | 0 | 0.0 | 0.0 | 0.00 | 0.07 | 0.07 | 88 | 1007.9 |
| 20260507022535 | 66 | 0 | 0.0 | 0.0 | 0.00 | 0.07 | 0.07 | 88 | 1007.9 |
| 20260507022036 | 66 | 0 | 0.0 | 1.0 | 0.00 | 0.07 | 0.07 | 87 | 1007.9 |
| 20260507021546 | 66 | 0 | 0.0 | 1.0 | 0.00 | 0.07 | 0.07 | 86 | 1008.0 |
| 20260507021034 | 66 | 0 | 0.0 | 0.0 | 0.00 | 0.07 | 0.07 | 86 | 1008.1 |
| 20260507020536 | 66 | 0 | 0.0 | 0.0 | 0.00 | 0.07 | 0.07 | 86 | 1008.3 |
| 20260507020056 | 66 | 0 | 0.0 | 0.0 | 0.00 | 0.07 | 0.07 | 86 | 1008.6 |
| 20260507015535 | 66 | 0 | 0.0 | 0.0 | 0.00 | 0.07 | 0.07 | 86 | 1008.4 |
| 20260507015035 | 67 | 0 | 0.0 | 0.0 | 0.00 | 0.07 | 0.07 | 85 | 1008.5 |
| 20260507014600 | 67 | 0 | 0.0 | 0.0 | 0.00 | 0.07 | 0.07 | 83 | 1008.6 |
| 20260507014035 | 67 | 0 | 0.0 | 0.0 | 0.00 | 0.07 | 0.07 | 83 | 1008.5 |
| 20260507013534 | 67 | 0 | 0.0 | 1.0 | 0.00 | 0.07 | 0.07 | 82 | 1008.6 |
| 20260507013047 | 67 | 0 | 0.0 | 1.0 | 0.00 | 0.07 | 0.07 | 82 | 1008.7 |
| 20260507012534 | 68 | 0 | 0.0 | 0.0 | 0.00 | 0.07 | 0.07 | 82 | 1008.7 |
| 20260507012035 | 68 | 0 | 0.0 | 1.0 | 0.00 | 0.07 | 0.07 | 81 | 1008.7 |
| 20260507011548 | 68 | 0 | 0.0 | 1.0 | 0.00 | 0.07 | 0.07 | 80 | 1008.7 |
| 20260507011034 | 68 | 0 | 0.0 | 0.0 | 0.00 | 0.07 | 0.07 | 80 | 1008.5 |
| 20260507010534 | 68 | 0 | 0.0 | 4.0 | 0.00 | 0.07 | 0.07 | 80 | 1008.2 |
| 20260507010047 | 68 | 0 | 0.0 | 4.0 | 0.00 | 0.07 | 0.07 | 79 | 1008.2 |
| 20260507005536 | 69 | 0 | 0.0 | 4.0 | 0.00 | 0.07 | 0.07 | 79 | 1008.4 |
| 20260507005034 | 69 | 0 | 1.0 | 4.0 | 0.00 | 0.07 | 0.07 | 79 | 1008.2 |
| 20260507004544 | 69 | 0 | 0.0 | 1.0 | 0.00 | 0.07 | 0.07 | 79 | 1008.1 |
| 20260507004035 | 69 | 0 | 0.0 | 2.0 | 0.00 | 0.07 | 0.07 | 79 | 1008.0 |
| 20260507003538 | 69 | 180 | 0.0 | 3.0 | 0.00 | 0.07 | 0.07 | 78 | 1008.1 |
| 20260507003051 | 69 | 221 | 0.0 | 4.0 | 0.00 | 0.07 | 0.07 | 78 | 1008.0 |
| 20260507002534 | 69 | 0 | 0.0 | 4.0 | 0.00 | 0.07 | 0.07 | 78 | 1008.2 |
| 20260507002035 | 69 | 207 | 0.0 | 5.0 | 0.00 | 0.07 | 0.07 | 78 | 1008.1 |
| 20260507001548 | 70 | 0 | 1.0 | 6.0 | 0.00 | 0.07 | 0.07 | 78 | 1008.1 |
| 20260507001034 | 70 | 196 | 2.0 | 6.0 | 0.00 | 0.07 | 0.07 | 78 | 1008.3 |
| 20260507000538 | 70 | 0 | 1.0 | 6.0 | 0.00 | 0.07 | 0.07 | 78 | 1008.1 |
| 20260507000048 | 70 | 0 | 0.0 | 5.0 | 0.00 | 0.07 | 0.07 | 77 | 1008.1 |
| 20260506235535 | 70 | 216 | 0.0 | 5.0 | 0.00 | 0.07 | 0.07 | 77 | 1008.2 |
| 20260506235035 | 70 | 278 | 1.0 | 5.0 | 0.00 | 0.07 | 0.07 | 77 | 1007.8 |
| 20260506234554 | 70 | 0 | 0.0 | 5.0 | 0.00 | 0.07 | 0.07 | 77 | 1007.8 |
| 20260506234035 | 70 | 0 | 1.0 | 6.0 | 0.00 | 0.07 | 0.07 | 77 | 1007.8 |
| 20260506233537 | 71 | 254 | 2.0 | 8.0 | 0.00 | 0.07 | 0.07 | 77 | 1007.6 |
| 20260506233055 | 71 | 121 | 2.0 | 8.0 | 0.00 | 0.07 | 0.07 | 76 | 1007.5 |
| 20260506232535 | 71 | 167 | 3.0 | 8.0 | 0.00 | 0.07 | 0.07 | 76 | 1007.6 |
| 20260506232035 | 71 | 240 | 1.0 | 8.0 | 0.00 | 0.07 | 0.07 | 76 | 1007.5 |
| 20260506231545 | 71 | 248 | 1.0 | 9.0 | 0.00 | 0.07 | 0.07 | 76 | 1007.6 |
| 20260506231035 | 71 | 0 | 2.0 | 10.0 | 0.00 | 0.07 | 0.07 | 75 | 1007.7 |
| 20260506230537 | 71 | 236 | 1.0 | 10.0 | 0.00 | 0.07 | 0.07 | 75 | 1007.7 |
| 20260506230053 | 71 | 190 | 2.0 | 9.0 | 0.00 | 0.07 | 0.07 | 75 | 1007.6 |
| 20260506225539 | 71 | 0 | 3.0 | 9.0 | 0.00 | 0.07 | 0.07 | 75 | 1007.7 |
| 20260506225035 | 71 | 138 | 1.0 | 6.0 | 0.00 | 0.07 | 0.07 | 74 | 1007.7 |
| 20260506224549 | 71 | 0 | 1.0 | 9.0 | 0.00 | 0.07 | 0.07 | 74 | 1007.7 |
| 20260506224034 | 71 | 250 | 2.0 | 11.0 | 0.00 | 0.07 | 0.07 | 74 | 1007.7 |
| 20260506223534 | 72 | 144 | 2.0 | 11.0 | 0.00 | 0.07 | 0.07 | 74 | 1007.6 |
| 20260506223047 | 72 | 198 | 3.0 | 11.0 | 0.00 | 0.07 | 0.07 | 73 | 1007.7 |
| 20260506222535 | 72 | 216 | 2.0 | 11.0 | 0.00 | 0.07 | 0.07 | 73 | 1007.8 |
| 20260506222034 | 72 | 232 | 2.0 | 9.0 | 0.00 | 0.07 | 0.07 | 73 | 1007.7 |
| 20260506221547 | 72 | 0 | 1.0 | 11.0 | 0.00 | 0.07 | 0.07 | 73 | 1007.7 |
| 20260506221035 | 72 | 272 | 4.0 | 11.0 | 0.00 | 0.07 | 0.07 | 73 | 1007.6 |
| 20260506220535 | 72 | 207 | 3.0 | 11.0 | 0.00 | 0.07 | 0.07 | 72 | 1007.7 |
| 20260506220047 | 72 | 222 | 3.0 | 11.0 | 0.00 | 0.07 | 0.07 | 72 | 1007.6 |
| 20260506215539 | 72 | 0 | 1.0 | 8.0 | 0.00 | 0.07 | 0.07 | 73 | 1007.7 |
| 20260506215036 | 72 | 140 | 2.0 | 10.0 | 0.00 | 0.07 | 0.07 | 72 | 1007.4 |
| 20260506214546 | 72 | 184 | 4.0 | 14.0 | 0.00 | 0.07 | 0.07 | 72 | 1007.5 |
| 20260506214035 | 72 | 212 | 2.0 | 14.0 | 0.00 | 0.07 | 0.07 | 72 | 1007.6 |
| 20260506213537 | 72 | 162 | 4.0 | 12.0 | 0.00 | 0.07 | 0.07 | 72 | 1007.7 |
| 20260506213102 | 72 | 254 | 4.0 | 12.0 | 0.00 | 0.07 | 0.07 | 72 | 1007.9 |
| 20260506212537 | 72 | 212 | 2.0 | 7.0 | 0.00 | 0.07 | 0.07 | 72 | 1007.7 |
| 20260506212038 | 72 | 266 | 3.0 | 7.0 | 0.00 | 0.07 | 0.07 | 73 | 1007.5 |
| 20260506211551 | 72 | 282 | 1.0 | 8.0 | 0.00 | 0.07 | 0.07 | 73 | 1007.7 |
| 20260506211034 | 72 | 161 | 2.0 | 8.0 | 0.00 | 0.07 | 0.07 | 73 | 1007.7 |
| 20260506210535 | 71 | 181 | 2.0 | 9.0 | 0.00 | 0.07 | 0.07 | 73 | 1007.6 |
| 20260506210047 | 71 | 221 | 2.0 | 9.0 | 0.00 | 0.07 | 0.07 | 73 | 1007.6 |
| 20260506205537 | 71 | 178 | 2.0 | 9.0 | 0.00 | 0.07 | 0.07 | 73 | 1007.6 |
| 20260506205037 | 71 | 159 | 2.0 | 9.0 | 0.00 | 0.07 | 0.07 | 73 | 1007.6 |
| 20260506204551 | 71 | 194 | 2.0 | 11.0 | 0.00 | 0.07 | 0.07 | 73 | 1007.7 |
| 20260506204036 | 71 | 204 | 2.0 | 11.0 | 0.00 | 0.07 | 0.07 | 74 | 1007.6 |
| 20260506203534 | 70 | 242 | 3.0 | 11.0 | 0.00 | 0.07 | 0.07 | 74 | 1007.7 |
| 20260506203046 | 70 | 143 | 3.0 | 10.0 | 0.00 | 0.07 | 0.07 | 74 | 1007.6 |
| 20260506202535 | 70 | 234 | 4.0 | 10.0 | 0.00 | 0.07 | 0.07 | 74 | 1007.6 |
| 20260506202034 | 70 | 0 | 2.0 | 13.0 | 0.00 | 0.07 | 0.07 | 74 | 1007.6 |
| 20260506201551 | 70 | 167 | 3.0 | 13.0 | 0.00 | 0.07 | 0.07 | 75 | 1007.8 |
| 20260506201038 | 69 | 245 | 2.0 | 11.0 | 0.00 | 0.07 | 0.07 | 76 | 1007.7 |
| 20260506200538 | 69 | 261 | 5.0 | 11.0 | 0.00 | 0.07 | 0.07 | 76 | 1007.8 |
| 20260506200054 | 69 | 92 | 2.0 | 8.0 | 0.00 | 0.07 | 0.07 | 77 | 1007.7 |
| 20260506195538 | 68 | 222 | 3.0 | 14.0 | 0.00 | 0.07 | 0.07 | 77 | 1007.6 |
| 20260506195038 | 68 | 192 | 4.0 | 14.0 | 0.00 | 0.07 | 0.07 | 78 | 1007.7 |
| 20260506194552 | 68 | 237 | 2.0 | 9.0 | 0.00 | 0.07 | 0.07 | 78 | 1007.8 |
| 20260506194034 | 68 | 242 | 4.0 | 9.0 | 0.00 | 0.07 | 0.07 | 78 | 1007.9 |
| 20260506193537 | 68 | 163 | 3.0 | 10.0 | 0.00 | 0.07 | 0.07 | 78 | 1007.8 |
| 20260506193050 | 68 | 187 | 2.0 | 10.0 | 0.00 | 0.07 | 0.07 | 79 | 1008.0 |
| 20260506192538 | 68 | 232 | 2.0 | 9.0 | 0.00 | 0.07 | 0.07 | 79 | 1008.3 |
| 20260506192038 | 68 | 205 | 2.0 | 9.0 | 0.00 | 0.07 | 0.07 | 79 | 1008.4 |
| 20260506191546 | 68 | 204 | 2.0 | 10.0 | 0.00 | 0.07 | 0.07 | 79 | 1008.3 |
| 20260506191039 | 68 | 0 | 1.0 | 11.0 | 0.00 | 0.07 | 0.07 | 79 | 1008.5 |
| 20260506190538 | 67 | 150 | 2.0 | 11.0 | 0.00 | 0.07 | 0.07 | 79 | 1008.6 |
| 20260506190051 | 67 | 0 | 3.0 | 11.0 | 0.00 | 0.07 | 0.07 | 80 | 1008.6 |
| 20260506185538 | 67 | 173 | 2.0 | 14.0 | 0.00 | 0.07 | 0.07 | 79 | 1008.6 |
| 20260506185038 | 67 | 0 | 5.0 | 14.0 | 0.00 | 0.07 | 0.07 | 79 | 1008.8 |
| 20260506184552 | 67 | 184 | 4.0 | 11.0 | 0.00 | 0.07 | 0.07 | 79 | 1008.8 |
| 20260506184038 | 67 | 253 | 3.0 | 11.0 | 0.00 | 0.07 | 0.07 | 79 | 1008.8 |
| 20260506183538 | 67 | 154 | 3.0 | 10.0 | 0.00 | 0.07 | 0.07 | 79 | 1008.9 |
| 20260506183051 | 67 | 284 | 2.0 | 10.0 | 0.00 | 0.07 | 0.07 | 79 | 1008.7 |
| 20260506182538 | 67 | 146 | 3.0 | 9.0 | 0.00 | 0.07 | 0.07 | 79 | 1008.9 |
| 20260506182038 | 67 | 193 | 3.0 | 10.0 | 0.00 | 0.07 | 0.07 | 79 | 1008.9 |
| 20260506181551 | 67 | 238 | 3.0 | 10.0 | 0.00 | 0.07 | 0.07 | 80 | 1009.0 |
| 20260506181038 | 67 | 238 | 3.0 | 10.0 | 0.00 | 0.07 | 0.07 | 80 | 1009.1 |
| 20260506180539 | 67 | 194 | 2.0 | 11.0 | 0.00 | 0.07 | 0.07 | 80 | 1008.9 |
| 20260506180059 | 67 | 191 | 3.0 | 12.0 | 0.00 | 0.07 | 0.07 | 80 | 1008.8 |
| 20260506175538 | 67 | 221 | 2.0 | 12.0 | 0.00 | 0.07 | 0.07 | 80 | 1009.1 |
| 20260506175038 | 67 | 188 | 4.0 | 12.0 | 0.00 | 0.07 | 0.07 | 80 | 1009.0 |
| 20260506174556 | 67 | 244 | 3.0 | 8.0 | 0.00 | 0.07 | 0.07 | 80 | 1009.0 |
| 20260506174038 | 66 | 263 | 2.0 | 10.0 | 0.00 | 0.07 | 0.07 | 80 | 1009.1 |
| 20260506173539 | 66 | 296 | 4.0 | 10.0 | 0.00 | 0.07 | 0.07 | 80 | 1009.1 |
| 20260506173051 | 66 | 194 | 1.0 | 10.0 | 0.00 | 0.07 | 0.07 | 82 | 1009.1 |
| 20260506172538 | 66 | 226 | 3.0 | 8.0 | 0.00 | 0.07 | 0.07 | 81 | 1009.1 |
| 20260506172038 | 66 | 95 | 1.0 | 8.0 | 0.00 | 0.07 | 0.07 | 82 | 1009.2 |
| 20260506171556 | 66 | 0 | 3.0 | 9.0 | 0.00 | 0.07 | 0.07 | 81 | 1009.2 |
| 20260506171052 | 66 | 181 | 3.0 | 10.0 | 0.00 | 0.07 | 0.07 | 81 | 1009.2 |
| 20260506170538 | 66 | 169 | 1.0 | 10.0 | 0.00 | 0.07 | 0.07 | 82 | 1009.2 |
| 20260506170105 | 65 | 198 | 4.0 | 10.0 | 0.00 | 0.07 | 0.07 | 82 | 1009.2 |
| 20260506165538 | 65 | 242 | 3.0 | 10.0 | 0.00 | 0.07 | 0.07 | 82 | 1009.2 |
| 20260506165039 | 65 | 144 | 3.0 | 10.0 | 0.00 | 0.07 | 0.07 | 82 | 1009.3 |
| 20260506164547 | 65 | 270 | 1.0 | 8.0 | 0.00 | 0.07 | 0.07 | 83 | 1009.4 |
| 20260506164038 | 65 | 0 | 2.0 | 11.0 | 0.00 | 0.07 | 0.07 | 83 | 1009.6 |
| 20260506163542 | 65 | 200 | 3.0 | 12.0 | 0.00 | 0.07 | 0.07 | 84 | 1009.5 |
| 20260506163106 | 65 | 204 | 3.0 | 12.0 | 0.00 | 0.07 | 0.07 | 84 | 1009.6 |
| 20260506162542 | 64 | 130 | 3.0 | 11.0 | 0.00 | 0.07 | 0.07 | 85 | 1009.3 |
| 20260506162041 | 64 | 157 | 3.0 | 11.0 | 0.00 | 0.07 | 0.07 | 85 | 1010.2 |
| 20260506161548 | 64 | 178 | 3.0 | 14.0 | 0.00 | 0.07 | 0.07 | 86 | 1010.0 |
| 20260506161042 | 63 | 204 | 4.0 | 14.0 | 0.00 | 0.07 | 0.07 | 86 | 1009.9 |
| 20260506160538 | 63 | 186 | 2.0 | 8.0 | 0.00 | 0.07 | 0.07 | 87 | 1009.9 |
| 20260506160045 | 63 | 164 | 1.0 | 8.0 | 0.00 | 0.07 | 0.07 | 88 | 1009.8 |
| 20260506155541 | 63 | 64 | 2.0 | 8.0 | 0.01 | 0.07 | 0.07 | 89 | 1009.7 |
| 20260506155038 | 63 | 190 | 1.0 | 10.0 | 0.01 | 0.07 | 0.07 | 89 | 1009.8 |
| 20260506154607 | 62 | 199 | 1.0 | 10.0 | 0.02 | 0.07 | 0.07 | 89 | 1009.9 |
| 20260506154038 | 62 | 26 | 2.0 | 9.0 | 0.02 | 0.07 | 0.07 | 89 | 1009.9 |
| 20260506153537 | 62 | 215 | 1.0 | 8.0 | 0.02 | 0.07 | 0.07 | 90 | 1009.8 |
| 20260506153059 | 62 | 185 | 2.0 | 7.0 | 0.02 | 0.07 | 0.07 | 89 | 1009.9 |
| 20260506152538 | 62 | 125 | 2.0 | 8.0 | 0.03 | 0.07 | 0.07 | 89 | 1009.9 |
| 20260506152035 | 62 | 0 | 3.0 | 9.0 | 0.05 | 0.07 | 0.07 | 89 | 1009.8 |
| 20260506151548 | 62 | 206 | 2.0 | 9.0 | 0.06 | 0.07 | 0.07 | 89 | 1009.7 |
| 20260506151038 | 62 | 348 | 2.0 | 8.0 | 0.06 | 0.07 | 0.07 | 89 | 1009.6 |
| 20260506150538 | 62 | 69 | 1.0 | 8.0 | 0.06 | 0.07 | 0.07 | 89 | 1009.7 |
| 20260506150048 | 62 | 250 | 3.0 | 8.0 | 0.06 | 0.07 | 0.07 | 88 | 1009.9 |
| 20260506145539 | 62 | 0 | 3.0 | 8.0 | 0.05 | 0.06 | 0.06 | 89 | 1010.0 |
| 20260506145038 | 62 | 360 | 2.0 | 7.0 | 0.05 | 0.06 | 0.06 | 89 | 1010.2 |
| 20260506144548 | 62 | 175 | 1.0 | 7.0 | 0.04 | 0.05 | 0.05 | 89 | 1010.3 |
| 20260506144038 | 62 | 229 | 1.0 | 7.0 | 0.04 | 0.05 | 0.05 | 88 | 1010.6 |
| 20260506143542 | 62 | 173 | 1.0 | 7.0 | 0.04 | 0.05 | 0.05 | 87 | 1010.4 |
| 20260506143059 | 63 | 193 | 1.0 | 7.0 | 0.04 | 0.05 | 0.05 | 87 | 1010.6 |
| 20260506142541 | 63 | 89 | 0.0 | 5.0 | 0.03 | 0.04 | 0.04 | 87 | 1010.6 |
| 20260506142038 | 63 | 0 | 2.0 | 7.0 | 0.01 | 0.02 | 0.02 | 86 | 1010.4 |
| 20260506141549 | 63 | 0 | 2.0 | 7.0 | 0.01 | 0.01 | 0.01 | 85 | 1010.4 |
| 20260506141041 | 63 | 132 | 1.0 | 7.0 | 0.01 | 0.01 | 0.01 | 85 | 1010.4 |
| 20260506140540 | 63 | 103 | 1.0 | 7.0 | 0.01 | 0.01 | 0.01 | 85 | 1010.2 |